FW5225 Weather Reports


time (UTC)temp
C
wind
direction
speed
KPH
gust
KPH
rain 1hr
cm
rain 24hr
cm
rain mn
cm
humidity
%
barometer
mb
20260508000511 35 242 1.6 12.9 0.00 0.00 0.00 9 1005.8
20260508000009 35 271 6.4 12.9 0.00 0.00 0.00 9 1005.9
20260507235510 35 286 1.6 19.3 0.00 0.00 0.00 10 1005.9
20260507235007 35 222 8.0 19.3 0.00 0.00 0.00 10 1006.0
20260507234509 35 260 1.6 17.7 0.00 0.00 0.00 10 1006.0
20260507234008 35 296 6.4 17.7 0.00 0.00 0.00 9 1006.1
20260507233507 35 236 1.6 12.9 0.00 0.00 0.00 10 1006.0
20260507233018 35 237 3.2 12.9 0.00 0.00 0.00 9 1006.1
20260507232505 35 320 4.8 14.5 0.00 0.00 0.00 9 1006.2
20260507232006 35 226 1.6 14.5 0.00 0.00 0.00 10 1006.2
20260507231511 35 250 4.8 14.5 0.00 0.00 0.00 10 1006.2
20260507231006 35 273 3.2 14.5 0.00 0.00 0.00 10 1006.1
20260507230506 35 213 4.8 14.5 0.00 0.00 0.00 9 1006.2
20260507230013 35 254 6.4 12.9 0.00 0.00 0.00 9 1006.3
20260507225502 36 257 4.8 12.9 0.00 0.00 0.00 9 1006.4
20260507225004 36 165 4.8 12.9 0.00 0.00 0.00 9 1006.4
20260507224502 36 155 3.2 11.3 0.00 0.00 0.00 9 1006.4
20260507224001 35 153 0.0 9.7 0.00 0.00 0.00 10 1006.5
20260507223602 35 132 1.6 9.7 0.00 0.00 0.00 9 1006.6
20260507223100 35 304 3.2 9.7 0.00 0.00 0.00 9 1006.7
20260507222559 35 248 1.6 11.3 0.00 0.00 0.00 10 1006.7
20260507222058 35 287 3.2 14.5 0.00 0.00 0.00 10 1006.8
20260507221558 35 249 4.8 14.5 0.00 0.00 0.00 11 1006.9
20260507221058 35 271 4.8 12.9 0.00 0.00 0.00 9 1006.9
20260507220557 35 276 3.2 12.9 0.00 0.00 0.00 10 1007.0
20260507220056 35 256 6.4 12.9 0.00 0.00 0.00 10 1007.2
20260507215555 35 231 3.2 17.7 0.00 0.00 0.00 10 1007.3
20260507215055 36 313 3.2 14.5 0.00 0.00 0.00 10 1007.3
20260507214556 35 257 3.2 11.3 0.00 0.00 0.00 10 1007.3
20260507214053 35 95 4.8 11.3 0.00 0.00 0.00 9 1007.4
20260507213551 35 148 4.8 11.3 0.00 0.00 0.00 9 1007.5
20260507213057 35 126 3.2 11.3 0.00 0.00 0.00 9 1007.6
20260507212550 35 217 3.2 11.3 0.00 0.00 0.00 9 1007.7
20260507212048 35 287 3.2 8.0 0.00 0.00 0.00 9 1007.7
20260507211553 34 143 0.0 6.4 0.00 0.00 0.00 10 1007.8
20260507211047 34 159 1.6 8.0 0.00 0.00 0.00 10 1008.0
20260507210546 34 360 3.2 8.0 0.00 0.00 0.00 13 1008.0
20260507210046 35 288 3.2 8.0 0.00 0.00 0.00 11 1008.1
20260507205544 35 67 1.6 8.0 0.00 0.00 0.00 9 1008.2
20260507205044 34 214 1.6 8.0 0.00 0.00 0.00 11 1008.3
20260507204543 34 52 0.0 4.8 0.00 0.00 0.00 11 1008.4
20260507204042 34 338 0.0 12.9 0.00 0.00 0.00 10 1008.4
20260507203542 34 190 1.6 8.0 0.00 0.00 0.00 9 1008.5
20260507203042 34 269 1.6 8.0 0.00 0.00 0.00 9 1008.5
20260507202540 34 250 3.2 8.0 0.00 0.00 0.00 9 1008.5
20260507202038 33 134 1.6 9.7 0.00 0.00 0.00 10 1008.6
20260507201546 33 232 3.2 9.7 0.00 0.00 0.00 10 1008.7
20260507201039 33 166 1.6 9.7 0.00 0.00 0.00 10 1008.8
20260507200536 33 312 1.6 8.0 0.00 0.00 0.00 10 1008.9
20260507200042 33 195 1.6 11.3 0.00 0.00 0.00 10 1008.9
20260507195533 33 243 1.6 9.7 0.00 0.00 0.00 10 1009.0
20260507195033 33 209 3.2 8.0 0.00 0.00 0.00 11 1009.1
20260507194533 33 210 3.2 8.0 0.00 0.00 0.00 10 1009.2
20260507194031 33 244 1.6 11.3 0.00 0.00 0.00 11 1009.2
20260507193530 33 82 3.2 11.3 0.00 0.00 0.00 10 1009.3
20260507193038 33 276 1.6 8.0 0.00 0.00 0.00 10 1009.4
20260507192529 33 260 1.6 8.0 0.00 0.00 0.00 10 1009.5
20260507192027 33 134 1.6 8.0 0.00 0.00 0.00 10 1009.7
20260507191527 33 169 1.6 8.0 0.00 0.00 0.00 11 1009.8
20260507191024 32 126 1.6 9.7 0.00 0.00 0.00 11 1009.9
20260507190524 32 54 1.6 9.7 0.00 0.00 0.00 10 1009.9
20260507190025 32 258 1.6 8.0 0.00 0.00 0.00 10 1010.0
20260507010024 28 151 3.2 16.1 0.00 0.00 0.00 18 1010.1
20260507005517 28 213 3.2 11.3 0.00 0.00 0.00 18 1010.2
20260507005016 28 190 3.2 9.7 0.00 0.00 0.00 18 1010.1
20260507004516 28 184 3.2 11.3 0.00 0.00 0.00 18 1010.2
20260507004015 28 260 4.8 11.3 0.00 0.00 0.00 17 1010.2
20260507003515 29 173 1.6 11.3 0.00 0.00 0.00 18 1010.1
20260507003015 29 211 4.8 11.3 0.00 0.00 0.00 17 1010.2
20260507002514 29 213 3.2 9.7 0.00 0.00 0.00 18 1010.2
20260507002014 29 205 1.6 12.9 0.00 0.00 0.00 17 1010.1
20260507001515 29 222 3.2 14.5 0.00 0.00 0.00 18 1010.1
20260507001013 29 198 3.2 14.5 0.00 0.00 0.00 17 1010.1